STARLINK-34631, 64855

Orbit data source: Space-Track

STARLINK-34631, 64855 is a payload satellite owned by SpaceX/Seattle (US) in SSO that was launched on Sat, 19 Jul 2025 UTC via an FALCON 9 launch vehicle from the Air Force Western Test Range (AFWTR). Payload-class satellites include a variety of spacecraft equipped with specific instruments for various scientific and technological missions. These include communications satellites like Starlink; space stations such as the ISS; scientific satellites like the Hubble; Earth observation satellites from companies like Planet Labs, Umbra, and HawkEye 360; GPS; miniature CubeSats for education and research; and military/defense satellites.

Loading next visibility...
Identifier
64855, 2025-152P
Orbit
SSO
Country
Flag of USUS
Related business
Manufacturer
SpaceX/Seattle
Mission
Operational Commercial Communications
Bus & Motor
STARLINK V2MO, Unknown motor
Mass
575 kg wet, ~530 kg dry
Launch date (UTC)
2025-07-19 (9 months ago)
Launch vehicle
FALCON 9
Launch site
Air Force Western Test Range (AFWTR)
Object type
Payload
Rocket body
Debris
Shape & HBR
Box + 2 Pan, 17.7 m
Radar Cross Section
36.964 m², Large (>1 m²)

Expand to show TLE details & history
Last TLE update: 20 hours ago

TLE from 20 hours ago
0 STARLINK-34631
1 64855U 25152P   26094.51997193  .00007607  00000-0  53086-3 0  9993
2 64855  97.6021 310.9593 0002718  82.6540 277.4995 15.05645944 39309
Epoch: 2026-04-04T12:28Z
TLE epoch observation values (Epoch: 2026-04-04T12:28:45.574Z)
Latitude
-0.0001°
Longitude
-69.06915°
Altitude
552.343 km
Speed
7.586 km/s
True Right ascension
20h 43m 50s
True Declination
0° 00' 00"
Sunlit
Object was in daylight at epoch
Visualization orbit readout
Latitude
Unknown
Longitude
Unknown
Altitude
Unknown
Speed
Unknown
Apparent Right ascension
Unknown
Apparent Declination
Unknown
Sunlit
N/A
Visualization observer readout
Local Sidereal Time
14:33:48
Azimuth
Unknown
Elevation
Unknown
Doppler factor
Unknown
Orbital elements
Apogee altitude
548.399 km
Perigee altitude
544.635 km
Semi-major axis
6,924.654 km
Eccentricity
0.00027
Inclination
97.6021°
RAAN
310.9593°
Arg. of periapsis
82.654°
True anomaly
277.46862°
Mean anomaly
277.4995°
Eccentric anomaly
277.48406°
Mean motion
3.76657 °/min
Orbital period
95.58 mins
BSTAR
0.00053086
Loading maneuver chart data...
Computing Atmospheric mass density...
Loading historical data...
Loading historical data...
Loading historical data...
Loading historical data...
Loading historical data...
Loading historical data...
Loading historical data...

Documentation

Showing up to 5 results
|